カタログに戻る

STARLINK-6132

運用中通信VLEO
NORAD 57101·PAYLOAD·🇺🇸 United States

打ち上げ Jun 23, 2023 から Cape Canaveral Space Force Station

Loading…

次のパス (今後24時間)

TLE

最新Source: CelesTrak SupGP

元期: Sep 15, 2026, 02:50 UTC

1 57101C 23090A   26258.11854167  .00012029  00000+0  43567-3 0  2583
2 57101  43.0004 291.8339 0001370 258.3846  53.9276 15.27573902    13

AllMySatでSTARLINK-6132をリアルタイム追跡

Download on the App Store